Regional Weather Roundup
Issued by NWS

Home | Current Version | Previous Version | Graphics & Text | Print | Product List | Glossary Off
Versions: 1 2 3 4 5 6 7 8 9 10 11 12 13 14 15 16 17 18 19 20 21 22 23 24 25 26 27 28 29 30 31 32 33 34 35 36 37 38 39 40 41 42 43 44 45 46 47 48 49 50

000
ASUS45 KPSR 241110
RWRAZ

ARIZONA REGIONAL HOURLY WEATHER ROUNDUP
NATIONAL WEATHER SERVICE PHOENIX AZ
400 AM MST FRI OCT 24 2014

NOTE: FAIR INDICATES FEW OR NO CLOUDS BELOW 12,000 FEET WITH NO
SIGNIFICANT WEATHER AND/OR OBSTRUCTIONS TO VISIBILITY.

AZZ001>003-036-241200-
NORTHWEST ARIZONA

CITY           SKY/WX    TMP DP  RH WIND       PRES   REMARKS
BULLHEAD CITY  CLEAR     66  39  37 CALM      29.99R
KINGMAN        CLEAR     56  37  49 S7        30.13S
$$

AZZ004>008-015-016-018-241200-
NORTH CENTRAL ARIZONA

CITY           SKY/WX    TMP DP  RH WIND       PRES   REMARKS
GRAND CANYON   HAZE      29  24  82 CALM      30.33F VSB 1
PRESCOTT       CLEAR     47  36  65 S3        30.24S
FLAGSTAFF      PTCLDY    34  30  85 CALM      30.36R
PAYSON         CLEAR     54  39  58 CALM      30.26S
PAGE           CLEAR     55  33  43 CALM      30.20S
$$

AZZ009>014-017-241200-
NORTHEAST ARIZONA

CITY           SKY/WX    TMP DP  RH WIND       PRES   REMARKS
WINSLOW        PTCLDY    46  38  73 SE6       30.26S
SAINT JOHNS    PTCLDY    46  38  73 S6        30.30R
WINDOW ROCK    PTCLDY    33  25  72 S3        30.36S
SHOW LOW       CLEAR     41  36  81 S5        30.34S
$$

AZZ023-241200-
GREATER PHOENIX AREA

CITY           SKY/WX    TMP DP  RH WIND       PRES   REMARKS
PHOENIX        CLEAR     71  49  45 E6        29.98R
BUCKEYE          N/A     59  43  55 N3        29.99S
LUKE AFB       CLEAR     64  47  52 N7        29.99R
DEER VALLEY    CLEAR     70  43  37 NE9       30.00S
SCOTTSDALE     CLEAR     65  51  60 CALM      30.01S
MESA-GATEWAY   CLEAR     63  48  59 SE7       30.02S
$$

AZZ027-028-241200-
SOUTHWEST MARICOPA COUNTY AND PINAL COUNTY

CITY           SKY/WX    TMP DP  RH WIND       PRES   REMARKS
CASA GRANDE    CLEAR     63  46  55 CALM      30.01R
GILA BEND      FAIR      69  48  47 CALM      29.97S
$$

AZZ503-504-507>509-241200-
SOUTHEAST ARIZONA

CITY           SKY/WX    TMP DP  RH WIND       PRES   REMARKS
TUCSON         CLEAR     63  45  51 SE9       30.09S
DAVIS-MONTHAN  CLEAR     62  46  55 SE9       30.08S
NOGALES        CLEAR     53  45  74 CALM      30.16R
SIERRA VISTA   CLEAR     57  43  58 CALM      30.21S
DOUGLAS        CLEAR     48  43  82 CALM      30.19S
SAFFORD        CLEAR     57  49  74 CALM      30.13S
$$

AZZ020-021-025-026-031-241200-
SOUTHWEST ARIZONA

CITY           SKY/WX    TMP DP  RH WIND       PRES   REMARKS
YUMA           CLEAR     72  46  39 E6        29.91S
$$

CAZ031-033-041-043-047-048-061-241200-
SOUTHERN CALIFORNIA

CITY           SKY/WX    TMP DP  RH WIND       PRES   REMARKS
DOWNTOWN L.A.  CLEAR     61  55  81 CALM      29.95S
L.A. AIRPORT   PTCLDY    61  61 100 CALM      29.95F
SAN DIEGO      CLEAR     65  57  75 CALM      29.96F
BURBANK        CLEAR     60  40  47 CALM      29.96F
ONTARIO        CLEAR     65  43  44 CALM      29.97F
RIVERSIDE      CLEAR     62  46  55 CALM      29.98S
PALM SPRINGS   CLEAR     75  33  21 NW7       29.95F
EL CENTRO NAS  CLEAR     66  39  37 W7        29.90S
IMPERIAL       CLEAR     66  46  48 W5        29.90S
BLYTHE         CLEAR     65  42  43 N5        29.93F
NEEDLES        CLEAR     67  39  35 W3        29.98R
$$

NVZ020-UTZ003-241200-
SOUTHERN NEVADA-UTAH

CITY           SKY/WX    TMP DP  RH WIND       PRES   REMARKS
LAS VEGAS      CLEAR     63  36  36 SW8       30.01S
SALT LAKE CITY PTCLDY    45  40  82 CALM      30.11R
$$

NMZ009-TXZ055-241200-
NEW MEXICO-WEST TEXAS

CITY           SKY/WX    TMP DP  RH WIND       PRES   REMARKS
ALBUQUERQUE    CLEAR     55  34  45 NW3       30.28R
EL PASO        CLEAR     60  51  72 CALM      30.19R
$$


........................KEY........................
SKY/WX - SKY CONDITION/WEATHER
TMP    - TEMPERATURE IN FAHRENHEIT
DP     - DEW POINT IN FAHRENHEIT
RH     - RELATIVE HUMIDITY IN PERCENT
WIND   - DIRECTION AND SPEED IN MILES PER HOUR (MPH)
VRB    - VARIABLE WIND DIRECTION
PRES   - MEAN SEA LEVEL PRESSURE IN INCHES OF MERCURY
         F - FALLING PRESSURE   R - RISING PRESSURE
         S - STEADY PRESSURE
VSB    - VISIBILITY IN MILES
HX     - HEAT INDEX IN FAHRENHEIT
WCI    - WIND CHILL INDEX IN FAHRENHEIT
TC     - TEMPERATURE IN CELSIUS WHICH IS ALSO KNOWN AS
         TEMPERATURE IN CENTIGRADE
AFB    - AIR FORCE BASE
         LUKE AFB IS LUKE AIR FORCE BASE
         DAVIS-MONTHAN IS DAVIS-MONTHAN AIR FORCE BASE
NAS    - NAVAL AIR STATION
         EL CENTRO NAS IS EL CENTRO NAVAL AIR STATION
N/A    - NOT AVAILABLE



USA.gov is the U.S. government's official web portal to all federal, state and local government web resources and services.